Previsão horária em Cavarzere

Hoje, 31 Julho, Sábado

Tempo Temperatura Precipitação Vento Pressão Humidade
00:00 +25°C° 0 mm 2 m/s 755 mmHg 74%
01:00 +24°C° 0 mm 2 m/s 755 mmHg 77%
02:00 +23°C° 0 mm 2 m/s 755 mmHg 81%
03:00 +23°C° 0 mm 2 m/s 755 mmHg 84%
04:00 +22°C° 0 mm 3 m/s 755 mmHg 88%
05:00 +24°C° 0 mm 2 m/s 755 mmHg 84%
06:00 +25°C° 0 mm 2 m/s 755 mmHg 80%
07:00 +26°C° 0 mm 2 m/s 755 mmHg 76%
08:00 +27°C° 0 mm 2 m/s 755 mmHg 68%
09:00 +29°C° 0 mm 2 m/s 756 mmHg 60%
10:00 +31°C° 0 mm 1 m/s 756 mmHg 53%
11:00 +32°C° 0 mm 1 m/s 755 mmHg 48%
12:00 +35°C° 0 mm 2 m/s 755 mmHg 43%
13:00 +36°C° 0 mm 2 m/s 755 mmHg 38%
14:00 +36°C° 0 mm 3 m/s 754 mmHg 38%
15:00 +36°C° 0 mm 4 m/s 754 mmHg 39%
16:00 +36°C° 0 mm 5 m/s 754 mmHg 40%
17:00 +34°C° 0 mm 5 m/s 754 mmHg 47%
18:00 +32°C° 0 mm 5 m/s 753 mmHg 53%
19:00 +29°C° 0 mm 5 m/s 753 mmHg 60%
20:00 +28°C° 0 mm 4 m/s 753 mmHg 66%
21:00 +27°C° 0 mm 4 m/s 754 mmHg 72%
22:00 +26°C° 0 mm 3 m/s 754 mmHg 78%
23:00 +26°C° 0 mm 3 m/s 754 mmHg 80%

Amanhã, 1 Agosto, Domingo

Tempo Temperatura Precipitação Vento Pressão Humidade
00:00 +25°C° 0 mm 3 m/s 754 mmHg 82%
01:00 +25°C° 0 mm 3 m/s 753 mmHg 85%
02:00 +24°C° 0 mm 3 m/s 753 mmHg 84%
03:00 +24°C° 0 mm 3 m/s 753 mmHg 83%
04:00 +22°C° 0 mm 3 m/s 753 mmHg 82%
05:00 +24°C° 0.1 mm 3 m/s 753 mmHg 80%
06:00 +24°C° 0.1 mm 3 m/s 753 mmHg 79%
07:00 +25°C° 0.1 mm 4 m/s 753 mmHg 78%
08:00 +27°C° 0.1 mm 3 m/s 753 mmHg 70%
09:00 +28°C° 0.1 mm 2 m/s 753 mmHg 63%
10:00 +30°C° 0.1 mm 2 m/s 753 mmHg 55%
11:00 +32°C° 0 mm 2 m/s 753 mmHg 48%
12:00 +35°C° 0 mm 3 m/s 752 mmHg 41%
13:00 +36°C° 0 mm 4 m/s 752 mmHg 34%
14:00 +36°C° 0.1 mm 5 m/s 752 mmHg 33%
15:00 +35°C° 0.1 mm 7 m/s 751 mmHg 33%
16:00 +35°C° 0.1 mm 8 m/s 751 mmHg 32%
17:00 +33°C° 0 mm 7 m/s 752 mmHg 38%
18:00 +30°C° 0 mm 5 m/s 752 mmHg 44%
19:00 +28°C° 0 mm 4 m/s 753 mmHg 50%
20:00 +27°C° 0 mm 4 m/s 753 mmHg 54%
21:00 +25°C° 0 mm 4 m/s 754 mmHg 58%
22:00 +23°C° 0 mm 4 m/s 754 mmHg 63%
23:00 +21°C° 0 mm 3 m/s 755 mmHg 68%

Depois de amanhã, 2 Agosto, Segunda-feira

Tempo Temperatura Precipitação Vento Pressão Humidade
00:00 +20°C° 0 mm 3 m/s 755 mmHg 73%
01:00 +19°C° 0 mm 2 m/s 755 mmHg 78%
02:00 +19°C° 0 mm 2 m/s 756 mmHg 80%
03:00 +20°C° 0 mm 1 m/s 756 mmHg 82%
04:00 +19°C° 0 mm 1 m/s 756 mmHg 84%
05:00 +20°C° 0 mm 1 m/s 757 mmHg 80%
06:00 +21°C° 0 mm 1 m/s 757 mmHg 76%
07:00 +22°C° 0 mm 1 m/s 758 mmHg 71%
08:00 +24°C° 0 mm 1 m/s 758 mmHg 64%
09:00 +26°C° 0 mm 1 m/s 758 mmHg 57%
10:00 +28°C° 0 mm 1 m/s 759 mmHg 50%
11:00 +28°C° 0 mm 2 m/s 759 mmHg 48%
12:00 +28°C° 0 mm 3 m/s 758 mmHg 47%
13:00 +29°C° 0 mm 4 m/s 758 mmHg 45%
14:00 +29°C° 0 mm 4 m/s 758 mmHg 45%
15:00 +29°C° 0 mm 4 m/s 758 mmHg 45%
16:00 +29°C° 0 mm 4 m/s 758 mmHg 45%
17:00 +28°C° 0 mm 4 m/s 758 mmHg 50%
18:00 +27°C° 0 mm 4 m/s 758 mmHg 55%
19:00 +26°C° 0 mm 3 m/s 758 mmHg 60%
20:00 +25°C° 0.2 mm 3 m/s 759 mmHg 65%
21:00 +24°C° 0.2 mm 3 m/s 759 mmHg 69%
22:00 +22°C° 0.2 mm 3 m/s 759 mmHg 74%
23:00 +21°C° 0.2 mm 3 m/s 759 mmHg 76%

3 Agosto, Terça-feira

Tempo Temperatura Precipitação Vento Pressão Humidade
00:00 +21°C° 0.2 mm 3 m/s 759 mmHg 78%
01:00 +20°C° 0.2 mm 3 m/s 760 mmHg 80%
02:00 +20°C° 0.2 mm 3 m/s 760 mmHg 83%
03:00 +19°C° 0.2 mm 3 m/s 759 mmHg 85%
04:00 +18°C° 0.2 mm 3 m/s 759 mmHg 88%
05:00 +19°C° 0 mm 3 m/s 760 mmHg 84%
06:00 +20°C° 0 mm 4 m/s 760 mmHg 80%
07:00 +21°C° 0 mm 4 m/s 760 mmHg 76%
08:00 +24°C° 0 mm 3 m/s 760 mmHg 69%
09:00 +26°C° 0 mm 3 m/s 760 mmHg 62%
10:00 +28°C° 0 mm 3 m/s 760 mmHg 55%
11:00 +29°C° 0 mm 3 m/s 759 mmHg 52%
12:00 +30°C° 0 mm 3 m/s 759 mmHg 48%
13:00 +31°C° 0 mm 2 m/s 759 mmHg 45%
14:00 +30°C° 0.2 mm 3 m/s 758 mmHg 48%
15:00 +29°C° 0.2 mm 3 m/s 758 mmHg 52%
16:00 +28°C° 0.2 mm 4 m/s 757 mmHg 55%
17:00 +27°C° 0.6 mm 4 m/s 757 mmHg 62%
18:00 +25°C° 0.6 mm 3 m/s 757 mmHg 70%
19:00 +24°C° 0.6 mm 3 m/s 757 mmHg 77%
20:00 +22°C° 0 mm 3 m/s 757 mmHg 80%
21:00 +21°C° 0 mm 2 m/s 757 mmHg 84%
22:00 +20°C° 0 mm 2 m/s 758 mmHg 87%
23:00 +19°C° 0.1 mm 2 m/s 758 mmHg 88%

4 Agosto, Quarta-feira

Tempo Temperatura Precipitação Vento Pressão Humidade
00:00 +19°C° 0.1 mm 2 m/s 758 mmHg 90%
01:00 +19°C° 0.1 mm 2 m/s 758 mmHg 91%
02:00 +19°C° 0 mm 2 m/s 758 mmHg 91%
03:00 +18°C° 0 mm 2 m/s 757 mmHg 91%
04:00 +19°C° 0 mm 1 m/s 757 mmHg 91%
05:00 +20°C° 0 mm 1 m/s 757 mmHg 88%
06:00 +21°C° 0 mm 1 m/s 758 mmHg 85%
07:00 +22°C° 0 mm 1 m/s 758 mmHg 82%
08:00 +24°C° 0 mm 1 m/s 758 mmHg 73%
09:00 +26°C° 0 mm 1 m/s 758 mmHg 64%
10:00 +28°C° 0 mm 1 m/s 758 mmHg 55%
11:00 +29°C° 0 mm 1 m/s 758 mmHg 52%
12:00 +29°C° 0 mm 2 m/s 757 mmHg 48%
13:00 +30°C° 0 mm 2 m/s 757 mmHg 45%
14:00 +29°C° 0 mm 3 m/s 757 mmHg 49%
15:00 +29°C° 0 mm 3 m/s 757 mmHg 53%
16:00 +28°C° 0 mm 4 m/s 757 mmHg 57%
17:00 +27°C° 0.1 mm 4 m/s 757 mmHg 60%
18:00 +27°C° 0.1 mm 3 m/s 757 mmHg 63%
19:00 +26°C° 0.1 mm 3 m/s 757 mmHg 66%
20:00 +25°C° 0 mm 3 m/s 757 mmHg 71%
21:00 +24°C° 0 mm 3 m/s 757 mmHg 75%
22:00 +22°C° 0 mm 3 m/s 757 mmHg 79%
23:00 +21°C° 0.7 mm 3 m/s 757 mmHg 83%

5 Agosto, Quinta-feira

Tempo Temperatura Precipitação Vento Pressão Humidade
00:00 +21°C° 0.7 mm 3 m/s 757 mmHg 87%
01:00 +20°C° 0.7 mm 3 m/s 757 mmHg 91%
02:00 +19°C° 0.5 mm 3 m/s 756 mmHg 92%
03:00 +19°C° 0.5 mm 3 m/s 756 mmHg 94%
04:00 +18°C° 0.5 mm 3 m/s 756 mmHg 95%
05:00 +19°C° 0.5 mm 4 m/s 756 mmHg 93%
06:00 +20°C° 0.5 mm 4 m/s 756 mmHg 91%
07:00 +20°C° 0.5 mm 4 m/s 756 mmHg 89%
08:00 +22°C° 0.2 mm 4 m/s 756 mmHg 82%
09:00 +24°C° 0.2 mm 3 m/s 756 mmHg 75%
10:00 +25°C° 0.2 mm 3 m/s 757 mmHg 68%
11:00 +27°C° 0.1 mm 2 m/s 756 mmHg 61%
12:00 +28°C° 0.1 mm 2 m/s 756 mmHg 55%
13:00 +30°C° 0.1 mm 2 m/s 756 mmHg 48%
14:00 +30°C° 0 mm 3 m/s 755 mmHg 49%
15:00 +29°C° 0 mm 4 m/s 755 mmHg 49%
16:00 +29°C° 0 mm 5 m/s 754 mmHg 50%
17:00 +28°C° 0 mm 4 m/s 754 mmHg 56%
18:00 +27°C° 0 mm 4 m/s 754 mmHg 61%
19:00 +25°C° 0 mm 3 m/s 754 mmHg 67%
20:00 +24°C° 0.6 mm 3 m/s 754 mmHg 75%
21:00 +22°C° 0.6 mm 3 m/s 755 mmHg 82%
22:00 +21°C° 0.6 mm 2 m/s 755 mmHg 89%
23:00 +20°C° 0.1 mm 2 m/s 755 mmHg 90%
Mostrar mais

Necessitamos do seu Consentimento

A Meteoprog e os seus Fornecedores de Serviços podem armazenar e aceder a dados pessoais como cookies, identificadores do dispositivo ou outras tecnologias semelhantes existentes no seu dispositivo e processar estes dados para personalizar conteúdos e anúncios, assim como funcionalidades nas redes sociais e análise de tráfego.

  • Armazenar e/ou aceder a informações no seu dispositivo

    Os cookies, identificadores do dispositivo ou outras informações podem ser armazenados ou acedidos no seu dispositivo, para os fins acima indicados.

  • Anúncios e conteúdos personalizados, medição de anúncios e conteúdos, dados sobre o público-alvo e desenvolvimento de produtos

    Os anúncios e os conteúdos podem ser personalizados com base num perfil. Podem ser adicionados dados adicionais para uma maior personalização dos anúncios e dos conteúdos. A eficácia dos anúncios e dos conteúdos pode ser medida. Podem ser obtidas informações sobre o público que visualizou os anúncios e os conteúdos. Estes dados podem ser usados para desenvolver ou melhorar sistemas, softwares ou a experiência do utilizador.

Ao clicar em "Eu concordo”, permitirá o uso de cookies, identificadores do dispositivo e web beacons mencionados ou outras tecnologias semelhantes. As configurações do navegador do seu dispositivo podem ser alteradas.

Para certos fins, podem ser invocados interesses legítimos ao invés de consentimento. Pode ler mais informação sobre este assunto na nossa Política de Privacidade e Cookies.